Voltar ao catálogo

CZ-6A DEB

AtivoSSO
NORAD 54268·DEBRIS·🇨🇳 China

Lançado Nov 11, 2022 de Taiyuan Satellite Launch Center

Loading…

Próximas Passagens (próximas 24 horas)

TLE

AtualizadoSource: Space-Track

Época: Sep 14, 2026, 08:38 UTC

1 54268U 22151K   26257.35993311 -.00000167  00000-0 -88554-4 0  9992
2 54268  98.9085 220.4961 0121408 195.3834 164.3624 13.94136973194791

Acompanhe CZ-6A DEB em tempo real com AllMySat

Download on the App Store